Location: Gisborne
(38.6530°S, 178.0040°E)
Time: 19:58:22
(UTC+12:00)

Cosmos 1606 - Pass Details

Date: 24 January 2019
Orbit: 503 x 530 km, 82.5° (Epoch: 22 April)

Event Time Altitude Azimuth Distance (km) Brightness Sun altitude
Exits shadow 23:28:33 38° 254° (WSW) 832 4.0 -26.5°
Drops below altitude 10° 23:32:10 10° 189° (S) 1,810 6.3 -26.8°
Sets 23:34:27 0° 181° (S) 2,707 7.3 -27.1°
